Location: Ferchesar
(52.6477°N, 12.4298°E)
Time: 13:40:43
(UTC+01:00)

Altair - Pass Details

Date: 16 December 2021
Orbit: 1501 x 1683 km, 47.2° (Epoch: 27 January)

Event Time Altitude Azimuth Distance (km) Brightness Sun altitude
Rises 19:35:14 0° 285° (WNW) 4,719 11.1 -31.7°
Reaches altitude 10° 19:39:28 10° 269° (W) 3,704 10.4 -32.4°
Maximum altitude 19:45:19 19° 229° (SW) 3,027 9.4 -33.3°
Drops below altitude 10° 19:51:07 10° 189° (S) 3,647 9.5 -34.1°
Sets 19:55:15 0° 173° (S) 4,621 9.9 -34.8°
